Location: Unspecified
(50.7693°N, 0.0000°E)
Time: 05:46:52
(UTC+00:00)

deb Explorer IX - Pass Details

Date: 20 June 2019
Orbit: 544 x 1107 km, 38.8° (Epoch: 12 October)

Event Time Altitude Azimuth Distance (km) Brightness Sun altitude
Rises 19:19:27 0° 264° (W) 3,872 ? 6.6°
Reaches altitude 10° 19:23:25 10° 245° (WSW) 2,848 ? 6.0°
Maximum altitude 19:27:23 16° 210° (SSW) 2,333 ? 5.5°
Drops below altitude 10° 19:31:07 10° 174° (S) 2,647 ? 5.0°
Sets 19:34:36 0° 154° (SSE) 3,471 ? 4.5°
